Regional Weather Roundup
Issued by NWS Spokane, WA

Home | Current Version | Previous Version | Text Only | Print | Product List | Glossary On
Versions: 1 2 3 4 5 6 7 8 9 10 11 12 13 14 15 16 17 18 19 20 21 22 23 24 25 26 27 28 29 30 31 32 33 34 35 36 37 38 39 40 41 42 43 44 45 46 47 48 49 50
000
NZUS01 KOTX 311005
RWROTX
EASTERN WASHINGTON/NORTHERN IDAHO ROUNDUP
NATIONAL WEATHER SERVICE, SPOKANE WA
300 AM PDT FRI JUL 31 2015

Note: "fair" indicated few or no clouds below 12,000 feet with no
significant weather and/or obstructions to visibility.

...NORTHEAST WASHINGTON AND NORTHERN IDAHO PANHANDLE...

CITY           SKY/WX    TMP DP  RH WIND       PRES   REMARKS
SPOKANE INTL   PTCLDY    68  33  27 NE5       30.10R
SPOKANE DOWNTO CLEAR     62  42  47 N5        30.09S
COEUR D ALENE  CLEAR     57  43  58 E6        30.11S
DEER PARK      CLEAR     51  33  50 CALM      30.10R
SANDPOINT      CLEAR     52  41  66 CALM      30.12R
BONNERS FERRY  FAIR      57  39  51 S3        30.14R

...SOUTHEAST WASHINGTON AND SOUTHERN IDAHO PANHANDLE...

CITY           SKY/WX    TMP DP  RH WIND       PRES   REMARKS
WALLA WALLA    MOCLDY    76  31  19 E7        30.00S
PULLMAN/MOSCOW PTCLDY    57  31  37 CALM      30.13S
LEWISTON       PTCLDY    69  34  27 SE5       30.06R
LOWELL           N/A     58  50  75 CALM      30.17R

...COLUMBIA BASIN...

CITY           SKY/WX    TMP DP  RH WIND       PRES   REMARKS
EPHRATA        CLEAR     67  40  37 NE5       30.01S
MOSES LAKE     CLEAR     64  38  38 N3        30.02S
TRI CITIES     PTCLDY    61  54  77 NE3       29.98R
HERMISTON      MOCLDY    65  41  41 S6        29.98R
PENDLETON      CLOUDY    67  31  26 E7        30.02S

...EAST SLOPES CASCADES...

CITY           SKY/WX    TMP DP  RH WIND       PRES   REMARKS
THE DALLES     CLEAR     74  47  38 SE6       29.98R
YAKIMA         CLEAR     63  46  54 W7        30.03S
ELLENSBURG     CLEAR     62  42  47 E5        30.07S
WENATCHEE      CLEAR     78  36  21 NW12      30.03S
OMAK           CLEAR     65  34  31 W7        30.04R

...SOUTHERN BRITISH COLUMBIA...

CITY           SKY/WX    TMP DP  RH WIND       PRES   REMARKS

...WESTERN MONTANA...

CITY           SKY/WX    TMP DP  RH WIND       PRES   REMARKS
MISSOULA       CLEAR     57  41  55 CALM      30.23R

...NEIGHBORING CITIES...

CITY           SKY/WX    TMP DP  RH WIND       PRES   REMARKS
SEATTLE        CLEAR     72  48  42 NE8       30.06S



USA.gov is the U.S. government's official web portal to all federal, state and local government web resources and services.